Rome, OR

1:51 PM MDT on April 21, 2018 (GMT -0600)
Rome State

Weather History for KREO - May, 2014

Change the Weather History Date:

Friday, May 23, 2014

  Actual Average Record
Temperature  
Mean Temperature 64 °F 55 °F  
Max Temperature 86 °F 72 °F 95 °F (2001)
Min Temperature 41 °F 39 °F 30 °F (2013)
Degree Days  
Heating Degree Days 1 10  
Month to date heating degree days 210 290  
Since 1 July heating degree days 5809 6384  
Cooling Degree Days 0 0  
Month to date cooling degree days 5 0  
Year to date cooling degree days 5 0  
Growing Degree Days 15 (Base 50)    
Moisture  
Dew Point 30 °F    
Average Humidity 31    
Maximum Humidity 53    
Minimum Humidity 8    
Precipitation  
Precipitation 0.00 in 0.05 in 1.13 in (1942)
Month to date precipitation 0.11 1.05  
Year to date precipitation 1.72 4.42  
Sea Level Pressure  
Sea Level Pressure 29.95 in    
Wind  
Wind Speed 9 mph (SW)    
Max Wind Speed 31 mph    
Max Gust Speed 42 mph    
T = Trace of Precipitation, MM = Missing Value Source: NWS Daily Summary

Daily Weather History Graph

Daily Weather History Graph

Search for Another Location

Airport or City:

Astronomy

May. 23, 2014 Rise Set
Actual Time 5:22 AM PDT 8:14 PM PDT
Civil Twilight 4:49 AM PDT 8:48 PM PDT
Nautical Twilight 4:06 AM PDT 9:30 PM PDT
Astronomical Twilight 3:18 AM PDT 10:19 PM PDT
Moon 2:26 AM PDT (5/23) 3:06 PM PDT (5/23)
Length of Visible Light 15h 59m
Length of Day
14h 52m
Waning Crescent, 26% of the Moon is Illuminated
May 23
Waning Crescent
May 28
New
Jun 5
First Quarter
Jun 12
Full
Jun 19
Last Quarter

Hourly Weather History & Observations

Time (PDT) Temp. Windchill Dew Point Humidity Pressure Visibility Wind Dir Wind Speed Gust Speed Precip Events Conditions
12:52 AM 59.0 °F - 30.9 °F 35% 29.99 in - South 8.1 mph - N/A   Unknown
1:52 AM 52.0 °F - 30.0 °F 43% 30.00 in - SSE 10.4 mph - N/A   Unknown
2:52 AM 50.0 °F - 30.0 °F 46% 30.00 in - SSE 6.9 mph - N/A   Unknown
3:52 AM 51.1 °F - 32.0 °F 48% 30.00 in - SE 10.4 mph - N/A   Unknown
4:52 AM 50.0 °F - 32.0 °F 50% 30.01 in - Variable 3.5 mph - N/A   Unknown
5:52 AM 46.0 °F 41.4 °F 30.0 °F 54% 30.01 in - SSE 9.2 mph - N/A   Unknown
6:52 AM 59.0 °F - 34.0 °F 39% 29.99 in - South 6.9 mph - N/A   Unknown
7:52 AM 64.0 °F - 33.1 °F 31% 29.99 in - WSW 3.5 mph - N/A   Unknown
8:52 AM 69.1 °F - 30.9 °F 24% 30.01 in - Calm Calm - N/A   Unknown
9:52 AM 75.0 °F - 28.9 °F 18% 29.98 in - SSW 6.9 mph - N/A   Unknown
10:52 AM 79.0 °F - 28.0 °F 15% 29.95 in - Variable 4.6 mph - N/A   Unknown
11:52 AM 81.0 °F - 21.9 °F 11% 29.93 in - Variable 4.6 mph - N/A   Unknown
12:52 PM 82.9 °F - 21.0 °F 10% 29.92 in - Calm Calm - N/A   Unknown
1:52 PM 82.0 °F - 19.0 °F 10% 29.91 in - WNW 9.2 mph - N/A   Unknown
2:52 PM 84.0 °F - 18.0 °F 9% 29.89 in - Variable 4.6 mph - N/A   Unknown
3:52 PM 84.0 °F - 18.0 °F 9% 29.86 in - West 12.7 mph 20.7 mph N/A   Unknown
4:52 PM 82.9 °F - 19.0 °F 9% 29.84 in - SW 11.5 mph 20.7 mph N/A   Unknown
5:52 PM 82.0 °F - 21.0 °F 10% 29.83 in - SW 11.5 mph - N/A   Unknown
6:16 PM 78.1 °F - 41.0 °F 27% 29.93 in - WNW 28.8 mph 38.0 mph N/A   Unknown
6:52 PM 73.0 °F - 42.1 °F 33% 29.86 in - WNW 27.6 mph 34.5 mph N/A   Unknown
8:52 PM 64.9 °F - 43.0 °F 45% 29.94 in - North 6.9 mph - N/A   Unknown
9:52 PM 62.1 °F - 42.1 °F 48% 29.96 in - North 15.0 mph 24.2 mph N/A   Unknown
10:52 PM 61.0 °F - 43.0 °F 52% 29.95 in - NNE 10.4 mph - N/A   Unknown
11:52 PM 60.1 °F - 42.1 °F 51% 29.95 in - East 9.2 mph - N/A   Unknown